QPF
0.00 0.00 0.00 0.00 0.00 0.01 0.01 0.00 0.00 0.00 0.00 0.00 0.00 0.00 0.00 0.00 0.00 0.00 0.00 0.00 0.01 0.01 0.01 0.02 0.02 0.01 0.01 0.01 0.01 0.01 0.00 0.01 0.02 0.01 0.01 0.01 0.01 0.00 0.00 0.01 0.01 0.02 0.02 0.01 0.01 0.01 0.00 0.00 0.00
0.00 0.00 0.00 0.01 0.00 0.00 0.00 0.00 0.00 0.00 0.00 0.00 0.01 0.00 0.00 0.00 0.00 0.00 0.00 0.00 0.01 0.02 0.02 0.01 0.02 0.02 0.02 0.02 0.02 0.01 0.01 0.01 0.02 0.01 0.01 0.01 0.02 0.01 0.01 0.01 0.01 0.03 0.02 0.01 0.01 0.00 0.00 0.00 0.00
0.00 0.00 0.00 0.00 0.00 0.00 0.00 0.00 0.00 0.00 0.00 0.01 0.01 0.01 0.01 0.00 0.00 0.00 0.00 0.01 0.02 0.02 0.03 0.02 0.03 0.03 0.03 0.03 0.03 0.02 0.01 0.02 0.01 0.01 0.01 0.02 0.02 0.01 0.01 0.02 0.02 0.03 0.02 0.01 0.00 0.00 0.00 0.00 0.00
0.00 0.00 0.00 0.00 0.00 0.00 0.00 0.00 0.00 0.00 0.00 0.01 0.01 0.01 0.01 0.01 0.00 0.00 0.00 0.01 0.01 0.02 0.03 0.04 0.05 0.05 0.05 0.04 0.03 0.03 0.02 0.02 0.02 0.02 0.02 0.03 0.02 0.02 0.01 0.02 0.02 0.02 0.02 0.01 0.00 0.00 0.00 0.00 0.00
0.00 0.00 0.00 0.00 0.00 0.00 0.00 0.00 0.00 0.00 0.00 0.00 0.01 0.02 0.01 0.01 0.00 0.00 0.01 0.02 0.02 0.02 0.03 0.04 0.07 0.08 0.07 0.06 0.04 0.03 0.03 0.03 0.02 0.03 0.03 0.04 0.03 0.02 0.02 0.02 0.02 0.02 0.03 0.01 0.00 0.00 0.00 0.00 0.00
0.00 0.00 0.00 0.00 0.00 0.00 0.00 0.00 0.00 0.00 0.00 0.00 0.01 0.02 0.02 0.01 0.01 0.02 0.03 0.04 0.04 0.03 0.04 0.05 0.07 0.08 0.08 0.08 0.06 0.04 0.04 0.03 0.04 0.04 0.04 0.05 0.05 0.03 0.02 0.02 0.02 0.02 0.02 0.01 0.00 0.00 0.00 0.00 0.00
0.00 0.00 0.00 0.00 0.00 0.00 0.00 0.00 0.00 0.00 0.00 0.00 0.01 0.03 0.03 0.01 0.01 0.02 0.04 0.05 0.05 0.05 0.06 0.07 0.09 0.09 0.09 0.09 0.09 0.07 0.06 0.05 0.03 0.03 0.04 0.06 0.06 0.05 0.03 0.02 0.02 0.01 0.01 0.01 0.00 0.00 0.00 0.00 0.00
0.00 0.00 0.00 0.00 0.00 0.00 0.00 0.00 0.00 0.00 0.00 0.00 0.01 0.03 0.05 0.04 0.02 0.02 0.04 0.05 0.06 0.05 0.06 0.08 0.11 0.12 0.10 0.09 0.10 0.10 0.07 0.06 0.05 0.04 0.04 0.05 0.06 0.05 0.04 0.03 0.02 0.01 0.01 0.00 0.00 0.00 0.00 0.00 0.00
0.00 0.00 0.00 0.00 0.00 0.00 0.00 0.00 0.00 0.00 0.00 0.00 0.01 0.02 0.05 0.06 0.05 0.04 0.04 0.05 0.04 0.05 0.06 0.09 0.11 0.13 0.14 0.12 0.11 0.12 0.09 0.07 0.07 0.07 0.06 0.05 0.06 0.04 0.03 0.02 0.03 0.01 0.01 0.00 0.00 0.00 0.00 0.00 0.00
0.01 0.00 0.00 0.00 0.00 0.00 0.00 0.00 0.00 0.00 0.00 0.00 0.00 0.01 0.05 0.08 0.07 0.04 0.04 0.04 0.04 0.04 0.05 0.08 0.09 0.11 0.14 0.16 0.13 0.12 0.10 0.08 0.06 0.05 0.06 0.05 0.04 0.03 0.02 0.02 0.02 0.02 0.01 0.00 0.00 0.00 0.00 0.00 0.00
0.00 0.00 0.00 0.00 0.00 0.00 0.00 0.00 0.00 0.00 0.00 0.00 0.01 0.01 0.03 0.07 0.11 0.06 0.03 0.04 0.06 0.05 0.06 0.09 0.11 0.11 0.13 0.16 0.17 0.14 0.11 0.10 0.08 0.06 0.05 0.03 0.03 0.04 0.03 0.01 0.02 0.02 0.01 0.00 0.00 0.00 0.00 0.00 0.00
0.00 0.00 0.00 0.00 0.00 0.00 0.00 0.00 0.00 0.00 0.00 0.00 0.01 0.01 0.03 0.06 0.12 0.12 0.05 0.03 0.05 0.07 0.07 0.08 0.10 0.13 0.15 0.17 0.17 0.16 0.13 0.11 0.09 0.07 0.05 0.04 0.03 0.03 0.03 0.02 0.02 0.02 0.01 0.00 0.00 0.00 0.00 0.00 0.00
0.00 0.00 0.00 0.00 0.00 0.00 0.00 0.00 0.00 0.00 0.00 0.00 0.01 0.01 0.02 0.05 0.09 0.15 0.11 0.07 0.05 0.06 0.08 0.10 0.10 0.13 0.15 0.16 0.18 0.16 0.12 0.12 0.11 0.09 0.07 0.05 0.03 0.03 0.03 0.02 0.02 0.02 0.01 0.01 0.00 0.00 0.00 0.00 0.00
0.00 0.00 0.00 0.00 0.00 0.00 0.00 0.00 0.00 0.00 0.00 0.01 0.01 0.01 0.02 0.03 0.06 0.15 0.14 0.12 0.08 0.06 0.06 0.09 0.11 0.13 0.16 0.15 0.15 0.15 0.12 0.12 0.12 0.11 0.09 0.07 0.04 0.03 0.04 0.02 0.02 0.01 0.02 0.01 0.01 0.00 0.00 0.00 0.00
0.01 0.00 0.00 0.00 0.00 0.00 0.00 0.00 0.00 0.00 0.00 0.01 0.01 0.01 0.01 0.02 0.04 0.09 0.11 0.11 0.10 0.08 0.06 0.07 0.08 0.11 0.15 0.16 0.13 0.15 0.12 0.11 0.12 0.11 0.11 0.10 0.07 0.05 0.04 0.04 0.03 0.02 0.02 0.01 0.01 0.00 0.00 0.00 0.00
0.01 0.01 0.00 0.00 0.00 0.00 0.00 0.00 0.00 0.01 0.01 0.01 0.01 0.02 0.01 0.02 0.02 0.04 0.03 0.05 0.08 0.08 0.07 0.06 0.07 0.08 0.13 0.17 0.15 0.14 0.15 0.11 0.11 0.11 0.11 0.12 0.10 0.08 0.07 0.05 0.04 0.03 0.03 0.02 0.01 0.01 0.00 0.00 0.00
0.01 0.01 0.00 0.00 0.01 0.01 0.00 0.00 0.01 0.02 0.03 0.04 0.03 0.03 0.01 0.01 0.02 0.03 0.01 0.03 0.07 0.07 0.06 0.06 0.06 0.08 0.12 0.18 0.18 0.17 0.19 0.15 0.13 0.13 0.12 0.11 0.11 0.09 0.08 0.07 0.06 0.05 0.03 0.02 0.02 0.02 0.01 0.01 0.00
0.01 0.01 0.01 0.01 0.01 0.01 0.01 0.02 0.04 0.05 0.06 0.05 0.03 0.03 0.03 0.03 0.03 0.04 0.03 0.03 0.06 0.08 0.07 0.06 0.06 0.08 0.11 0.16 0.19 0.21 0.22 0.19 0.16 0.15 0.14 0.12 0.10 0.09 0.09 0.07 0.06 0.05 0.04 0.04 0.03 0.02 0.02 0.01 0.01
0.02 0.01 0.02 0.01 0.01 0.03 0.04 0.06 0.09 0.09 0.07 0.06 0.03 0.03 0.03 0.04 0.04 0.05 0.06 0.05 0.06 0.10 0.09 0.06 0.06 0.08 0.11 0.15 0.19 0.21 0.20 0.18 0.15 0.14 0.14 0.15 0.13 0.09 0.08 0.08 0.06 0.05 0.04 0.04 0.04 0.04 0.03 0.02 0.02
0.02 0.02 0.02 0.03 0.04 0.06 0.06 0.09 0.09 0.07 0.09 0.09 0.05 0.04 0.03 0.04 0.07 0.09 0.10 0.10 0.07 0.09 0.12 0.11 0.09 0.11 0.11 0.13 0.16 0.20 0.20 0.17 0.14 0.13 0.13 0.14 0.14 0.13 0.11 0.09 0.08 0.06 0.04 0.04 0.05 0.05 0.04 0.03 0.03
0.02 0.02 0.03 0.05 0.07 0.07 0.07 0.08 0.08 0.08 0.10 0.10 0.05 0.05 0.03 0.04 0.06 0.11 0.10 0.12 0.11 0.12 0.12 0.13 0.13 0.15 0.14 0.15 0.15 0.20 0.24 0.23 0.19 0.16 0.15 0.15 0.15 0.14 0.14 0.12 0.11 0.09 0.06 0.05 0.05 0.05 0.05 0.04 0.03
0.05 0.03 0.04 0.06 0.09 0.10 0.07 0.10 0.11 0.10 0.09 0.10 0.07 0.05 0.05 0.06 0.09 0.14 0.16 0.19 0.20 0.19 0.16 0.15 0.17 0.18 0.19 0.22 0.21 0.21 0.24 0.24 0.21 0.18 0.16 0.16 0.18 0.16 0.13 0.13 0.12 0.11 0.09 0.06 0.05 0.05 0.05 0.05 0.04
0.05 0.04 0.06 0.06 0.08 0.07 0.05 0.08 0.11 0.11 0.11 0.13 0.11 0.10 0.10 0.10 0.14 0.20 0.22 0.25 0.27 0.27 0.21 0.18 0.18 0.17 0.19 0.20 0.23 0.23 0.22 0.21 0.20 0.19 0.19 0.19 0.21 0.19 0.15 0.13 0.14 0.13 0.11 0.09 0.07 0.05 0.04 0.04 0.04
0.04 0.07 0.08 0.07 0.07 0.06 0.04 0.06 0.09 0.11 0.13 0.14 0.14 0.15 0.15 0.15 0.17 0.21 0.23 0.23 0.27 0.27 0.25 0.21 0.22 0.21 0.20 0.18 0.19 0.22 0.20 0.17 0.16 0.15 0.16 0.16 0.17 0.18 0.16 0.14 0.13 0.12 0.11 0.09 0.08 0.07 0.05 0.04 0.03
0.05 0.07 0.07 0.07 0.05 0.05 0.04 0.05 0.09 0.11 0.14 0.16 0.17 0.18 0.17 0.16 0.18 0.20 0.18 0.19 0.21 0.21 0.20 0.18 0.17 0.18 0.17 0.16 0.16 0.17 0.15 0.13 0.12 0.11 0.10 0.11 0.11 0.11 0.12 0.12 0.11 0.10 0.09 0.09 0.08 0.07 0.06 0.05 0.04
0.03 0.03 0.04 0.04 0.03 0.03 0.03 0.05 0.08 0.12 0.14 0.17 0.18 0.17 0.15 0.15 0.18 0.16 0.15 0.17 0.18 0.16 0.15 0.14 0.13 0.14 0.15 0.14 0.13 0.13 0.12 0.11 0.10 0.08 0.07 0.08 0.08 0.08 0.08 0.10 0.10 0.09 0.09 0.08 0.07 0.07 0.06 0.05 0.04
0.01 0.02 0.02 0.03 0.02 0.03 0.03 0.04 0.06 0.09 0.11 0.12 0.12 0.12 0.13 0.14 0.14 0.14 0.15 0.16 0.13 0.11 0.12 0.11 0.12 0.13 0.13 0.14 0.11 0.12 0.12 0.11 0.09 0.08 0.07 0.07 0.07 0.08 0.08 0.10 0.11 0.10 0.09 0.08 0.06 0.05 0.05 0.05 0.04
0.01 0.01 0.02 0.03 0.02 0.03 0.03 0.05 0.08 0.08 0.10 0.11 0.10 0.10 0.12 0.12 0.13 0.17 0.19 0.20 0.17 0.15 0.13 0.11 0.11 0.11 0.10 0.11 0.10 0.12 0.12 0.13 0.13 0.10 0.10 0.08 0.08 0.09 0.09 0.10 0.11 0.10 0.08 0.08 0.08 0.06 0.05 0.05 0.05
0.01 0.02 0.02 0.02 0.02 0.02 0.03 0.07 0.08 0.08 0.09 0.11 0.11 0.11 0.12 0.12 0.14 0.17 0.19 0.21 0.21 0.19 0.15 0.13 0.11 0.08 0.08 0.09 0.10 0.11 0.10 0.11 0.15 0.16 0.13 0.12 0.10 0.10 0.10 0.10 0.12 0.11 0.09 0.08 0.08 0.08 0.07 0.06 0.05
0.01 0.02 0.02 0.03 0.02 0.02 0.04 0.07 0.06 0.06 0.06 0.08 0.09 0.09 0.10 0.11 0.13 0.15 0.15 0.15 0.15 0.15 0.15 0.15 0.13 0.13 0.11 0.11 0.12 0.12 0.09 0.09 0.12 0.16 0.15 0.13 0.14 0.14 0.14 0.14 0.15 0.14 0.12 0.10 0.09 0.09 0.09 0.08 0.07
MSLP
1013.55 1014.15 1014.93 1015.77 1016.56 1017.19 1017.57 1017.68 1017.53 1017.18 1016.72 1016.22 1015.74 1015.28 1014.83 1014.34 1013.79 1013.13 1012.41 1011.67 1011.00 1010.48 1010.19 1010.16 1010.40 1010.83 1011.37 1011.92 1012.40 1012.78 1013.04 1013.23 1013.38 1013.56 1013.80 1014.10 1014.46 1014.82 1015.14 1015.40 1015.57 1015.68 1015.75 1015.84 1015.98 1016.19 1016.46 1016.78 1017.10
1013.99 1014.67 1015.48 1016.30 1017.01 1017.51 1017.72 1017.64 1017.30 1016.77 1016.18 1015.59 1015.06 1014.60 1014.20 1013.78 1013.31 1012.75 1012.12 1011.45 1010.84 1010.37 1010.12 1010.12 1010.38 1010.83 1011.39 1011.97 1012.49 1012.91 1013.20 1013.41 1013.58 1013.76 1013.99 1014.28 1014.61 1014.95 1015.27 1015.52 1015.70 1015.82 1015.91 1016.01 1016.16 1016.36 1016.63 1016.94 1017.25
1014.49 1015.20 1016.00 1016.75 1017.34 1017.68 1017.73 1017.48 1016.99 1016.35 1015.67 1015.04 1014.50 1014.06 1013.69 1013.33 1012.92 1012.43 1011.86 1011.26 1010.70 1010.27 1010.05 1010.08 1010.36 1010.83 1011.41 1012.01 1012.55 1012.99 1013.31 1013.53 1013.71 1013.89 1014.11 1014.38 1014.70 1015.03 1015.33 1015.59 1015.79 1015.93 1016.05 1016.18 1016.34 1016.55 1016.81 1017.11 1017.42
1015.04 1015.75 1016.48 1017.12 1017.57 1017.76 1017.65 1017.27 1016.69 1015.99 1015.29 1014.66 1014.15 1013.74 1013.41 1013.08 1012.71 1012.26 1011.72 1011.16 1010.64 1010.25 1010.05 1010.10 1010.38 1010.85 1011.43 1012.03 1012.57 1013.01 1013.33 1013.56 1013.74 1013.92 1014.14 1014.41 1014.72 1015.05 1015.37 1015.65 1015.88 1016.05 1016.20 1016.36 1016.54 1016.76 1017.01 1017.30 1017.60
1015.61 1016.28 1016.91 1017.43 1017.73 1017.78 1017.55 1017.09 1016.47 1015.77 1015.10 1014.52 1014.05 1013.69 1013.39 1013.09 1012.73 1012.28 1011.77 1011.22 1010.73 1010.35 1010.17 1010.22 1010.49 1010.94 1011.48 1012.04 1012.55 1012.96 1013.27 1013.49 1013.68 1013.87 1014.09 1014.37 1014.70 1015.05 1015.40 1015.71 1015.98 1016.20 1016.39 1016.57 1016.77 1016.99 1017.25 1017.52 1017.80
1016.18 1016.77 1017.30 1017.68 1017.84 1017.77 1017.46 1016.96 1016.36 1015.72 1015.12 1014.62 1014.22 1013.91 1013.63 1013.34 1012.97 1012.52 1012.00 1011.47 1010.98 1010.62 1010.44 1010.46 1010.70 1011.09 1011.56 1012.05 1012.50 1012.86 1013.14 1013.35 1013.54 1013.74 1013.99 1014.31 1014.67 1015.06 1015.44 1015.80 1016.11 1016.38 1016.60 1016.81 1017.03 1017.25 1017.50 1017.75 1018.01
1016.70 1017.23 1017.64 1017.89 1017.93 1017.76 1017.40 1016.91 1016.35 1015.79 1015.30 1014.89 1014.57 1014.31 1014.05 1013.76 1013.38 1012.92 1012.40 1011.86 1011.38 1011.01 1010.82 1010.81 1010.99 1011.29 1011.67 1012.07 1012.42 1012.72 1012.96 1013.16 1013.36 1013.59 1013.88 1014.24 1014.64 1015.08 1015.51 1015.91 1016.26 1016.56 1016.82 1017.06 1017.28 1017.50 1017.74 1017.97 1018.21
1017.17 1017.62 1017.93 1018.06 1018.00 1017.76 1017.37 1016.90 1016.41 1015.95 1015.55 1015.24 1014.99 1014.77 1014.53 1014.23 1013.84 1013.37 1012.85 1012.32 1011.84 1011.48 1011.26 1011.21 1011.31 1011.52 1011.79 1012.07 1012.34 1012.57 1012.77 1012.96 1013.18 1013.45 1013.78 1014.18 1014.63 1015.11 1015.58 1016.01 1016.40 1016.73 1017.01 1017.27 1017.50 1017.72 1017.94 1018.16 1018.37
1017.58 1017.97 1018.18 1018.21 1018.05 1017.75 1017.35 1016.90 1016.47 1016.09 1015.78 1015.54 1015.34 1015.15 1014.92 1014.62 1014.23 1013.76 1013.25 1012.73 1012.27 1011.91 1011.68 1011.57 1011.60 1011.71 1011.87 1012.05 1012.23 1012.40 1012.58 1012.78 1013.02 1013.33 1013.71 1014.15 1014.63 1015.13 1015.62 1016.08 1016.48 1016.84 1017.15 1017.42 1017.66 1017.89 1018.10 1018.30 1018.49
1017.94 1018.27 1018.40 1018.33 1018.10 1017.74 1017.31 1016.87 1016.47 1016.14 1015.88 1015.68 1015.51 1015.32 1015.09 1014.79 1014.41 1013.96 1013.48 1013.00 1012.57 1012.22 1011.97 1011.82 1011.77 1011.80 1011.86 1011.96 1012.08 1012.21 1012.38 1012.60 1012.88 1013.24 1013.65 1014.12 1014.62 1015.13 1015.62 1016.08 1016.50 1016.87 1017.20 1017.49 1017.76 1018.00 1018.21 1018.40 1018.57
1018.28 1018.54 1018.59 1018.44 1018.13 1017.71 1017.24 1016.77 1016.36 1016.03 1015.77 1015.57 1015.39 1015.20 1014.97 1014.67 1014.31 1013.90 1013.47 1013.04 1012.65 1012.32 1012.07 1011.89 1011.79 1011.74 1011.73 1011.77 1011.85 1011.98 1012.17 1012.43 1012.75 1013.14 1013.59 1014.07 1014.57 1015.07 1015.55 1016.00 1016.43 1016.82 1017.17 1017.50 1017.80 1018.06 1018.28 1018.47 1018.62
1018.62 1018.82 1018.79 1018.55 1018.15 1017.65 1017.11 1016.59 1016.12 1015.74 1015.44 1015.19 1014.97 1014.75 1014.50 1014.22 1013.89 1013.54 1013.17 1012.81 1012.48 1012.19 1011.95 1011.75 1011.61 1011.51 1011.46 1011.47 1011.55 1011.70 1011.92 1012.23 1012.60 1013.04 1013.50 1013.99 1014.47 1014.95 1015.41 1015.85 1016.28 1016.69 1017.09 1017.46 1017.80 1018.09 1018.33 1018.52 1018.65
1018.98 1019.11 1018.99 1018.65 1018.15 1017.55 1016.92 1016.30 1015.74 1015.26 1014.86 1014.53 1014.25 1013.98 1013.72 1013.45 1013.17 1012.89 1012.61 1012.33 1012.08 1011.83 1011.61 1011.42 1011.25 1011.13 1011.06 1011.07 1011.16 1011.35 1011.63 1012.00 1012.43 1012.89 1013.37 1013.85 1014.32 1014.76 1015.20 1015.64 1016.08 1016.52 1016.97 1017.40 1017.79 1018.13 1018.39 1018.57 1018.68
1019.36 1019.39 1019.17 1018.73 1018.12 1017.40 1016.65 1015.90 1015.22 1014.61 1014.09 1013.65 1013.27 1012.95 1012.67 1012.43 1012.20 1012.01 1011.83 1011.65 1011.48 1011.30 1011.11 1010.93 1010.77 1010.64 1010.58 1010.60 1010.74 1010.97 1011.31 1011.74 1012.21 1012.71 1013.20 1013.67 1014.11 1014.54 1014.96 1015.40 1015.86 1016.35 1016.85 1017.34 1017.79 1018.17 1018.45 1018.64 1018.73
1019.71 1019.63 1019.30 1018.74 1018.02 1017.18 1016.30 1015.42 1014.59 1013.83 1013.17 1012.60 1012.13 1011.75 1011.45 1011.23 1011.08 1010.98 1010.91 1010.84 1010.76 1010.66 1010.53 1010.39 1010.24 1010.13 1010.08 1010.14 1010.31 1010.60 1010.99 1011.46 1011.98 1012.49 1012.99 1013.45 1013.88 1014.29 1014.71 1015.16 1015.65 1016.18 1016.74 1017.29 1017.79 1018.21 1018.52 1018.70 1018.77
1019.99 1019.78 1019.33 1018.65 1017.82 1016.86 1015.86 1014.84 1013.87 1012.97 1012.16 1011.47 1010.90 1010.46 1010.15 1009.96 1009.88 1009.87 1009.92 1009.97 1010.01 1010.00 1009.94 1009.85 1009.74 1009.65 1009.64 1009.72 1009.93 1010.26 1010.69 1011.20 1011.73 1012.26 1012.76 1013.21 1013.63 1014.04 1014.46 1014.93 1015.46 1016.03 1016.64 1017.24 1017.79 1018.24 1018.56 1018.74 1018.80
1020.10 1019.76 1019.19 1018.41 1017.47 1016.43 1015.32 1014.20 1013.10 1012.07 1011.13 1010.32 1009.65 1009.16 1008.83 1008.67 1008.65 1008.75 1008.91 1009.09 1009.25 1009.35 1009.38 1009.36 1009.31 1009.27 1009.28 1009.40 1009.63 1009.98 1010.43 1010.95 1011.50 1012.03 1012.52 1012.97 1013.39 1013.80 1014.23 1014.72 1015.27 1015.88 1016.53 1017.16 1017.73 1018.20 1018.54 1018.73 1018.78
1019.98 1019.51 1018.83 1017.97 1016.97 1015.87 1014.69 1013.50 1012.31 1011.17 1010.13 1009.21 1008.46 1007.90 1007.55 1007.41 1007.45 1007.63 1007.91 1008.21 1008.49 1008.72 1008.86 1008.92 1008.94 1008.96 1009.02 1009.16 1009.41 1009.77 1010.22 1010.73 1011.26 1011.78 1012.27 1012.71 1013.13 1013.55 1014.00 1014.51 1015.08 1015.72 1016.37 1017.02 1017.60 1018.08 1018.42 1018.62 1018.69
1019.57 1018.99 1018.23 1017.33 1016.31 1015.20 1014.01 1012.79 1011.55 1010.35 1009.22 1008.22 1007.39 1006.76 1006.38 1006.23 1006.30 1006.54 1006.91 1007.32 1007.73 1008.07 1008.33 1008.50 1008.61 1008.70 1008.81 1008.98 1009.24 1009.59 1010.03 1010.51 1011.02 1011.52 1012.00 1012.44 1012.87 1013.30 1013.77 1014.29 1014.87 1015.51 1016.16 1016.79 1017.37 1017.84 1018.19 1018.41 1018.51
1018.86 1018.20 1017.41 1016.52 1015.53 1014.46 1013.32 1012.12 1010.89 1009.66 1008.48 1007.41 1006.50 1005.80 1005.35 1005.16 1005.23 1005.50 1005.92 1006.41 1006.92 1007.38 1007.75 1008.04 1008.25 1008.42 1008.59 1008.80 1009.07 1009.41 1009.82 1010.28 1010.76 1011.24 1011.70 1012.15 1012.58 1013.04 1013.52 1014.05 1014.63 1015.25 1015.88 1016.48 1017.03 1017.49 1017.84 1018.09 1018.24
1017.90 1017.20 1016.43 1015.60 1014.71 1013.74 1012.70 1011.59 1010.40 1009.19 1007.98 1006.86 1005.87 1005.08 1004.54 1004.28 1004.29 1004.53 1004.96 1005.49 1006.06 1006.61 1007.09 1007.48 1007.80 1008.06 1008.29 1008.54 1008.83 1009.17 1009.57 1010.00 1010.46 1010.92 1011.38 1011.84 1012.30 1012.77 1013.26 1013.80 1014.37 1014.96 1015.55 1016.11 1016.62 1017.06 1017.41 1017.68 1017.87
1016.80 1016.11 1015.41 1014.70 1013.95 1013.14 1012.25 1011.26 1010.17 1009.00 1007.80 1006.63 1005.57 1004.68 1004.03 1003.65 1003.55 1003.72 1004.09 1004.60 1005.19 1005.79 1006.34 1006.83 1007.24 1007.59 1007.90 1008.20 1008.52 1008.87 1009.26 1009.69 1010.14 1010.60 1011.07 1011.55 1012.03 1012.52 1013.04 1013.57 1014.12 1014.68 1015.22 1015.74 1016.20 1016.61 1016.94 1017.22 1017.44
1015.68 1015.06 1014.48 1013.92 1013.36 1012.74 1012.04 1011.22 1010.25 1009.16 1007.99 1006.79 1005.66 1004.66 1003.88 1003.35 1003.11 1003.14 1003.40 1003.84 1004.39 1004.99 1005.58 1006.12 1006.61 1007.04 1007.43 1007.79 1008.16 1008.54 1008.95 1009.38 1009.84 1010.32 1010.81 1011.32 1011.83 1012.35 1012.88 1013.41 1013.95 1014.46 1014.96 1015.42 1015.83 1016.19 1016.50 1016.77 1017.01
1014.70 1014.17 1013.74 1013.37 1013.01 1012.62 1012.12 1011.48 1010.66 1009.67 1008.55 1007.35 1006.16 1005.07 1004.15 1003.46 1003.05 1002.91 1003.02 1003.33 1003.79 1004.34 1004.92 1005.48 1006.02 1006.51 1006.96 1007.40 1007.82 1008.25 1008.69 1009.15 1009.64 1010.15 1010.68 1011.21 1011.75 1012.30 1012.84 1013.37 1013.88 1014.36 1014.81 1015.21 1015.56 1015.87 1016.15 1016.39 1016.61
1013.95 1013.55 1013.28 1013.11 1012.96 1012.78 1012.48 1012.03 1011.37 1010.49 1009.44 1008.28 1007.07 1005.90 1004.87 1004.03 1003.45 1003.12 1003.06 1003.21 1003.54 1003.99 1004.51 1005.06 1005.60 1006.14 1006.64 1007.13 1007.61 1008.09 1008.58 1009.09 1009.62 1010.16 1010.72 1011.29 1011.86 1012.42 1012.97 1013.49 1013.97 1014.41 1014.80 1015.14 1015.44 1015.69 1015.92 1016.12 1016.29
1013.49 1013.23 1013.12 1013.12 1013.17 1013.17 1013.07 1012.79 1012.28 1011.54 1010.59 1009.49 1008.30 1007.11 1006.01 1005.06 1004.33 1003.84 1003.60 1003.58 1003.75 1004.07 1004.50 1004.99 1005.52 1006.06 1006.60 1007.13 1007.66 1008.19 1008.73 1009.28 1009.84 1010.42 1011.01 1011.60 1012.18 1012.74 1013.28 1013.77 1014.22 1014.61 1014.95 1015.23 1015.47 1015.67 1015.83 1015.97 1016.08
1013.31 1013.18 1013.22 1013.36 1013.55 1013.71 1013.76 1013.63 1013.28 1012.68 1011.86 1010.86 1009.75 1008.60 1007.49 1006.50 1005.67 1005.06 1004.67 1004.49 1004.51 1004.69 1005.01 1005.41 1005.89 1006.40 1006.94 1007.49 1008.05 1008.62 1009.19 1009.77 1010.36 1010.95 1011.55 1012.13 1012.71 1013.25 1013.75 1014.21 1014.61 1014.95 1015.23 1015.45 1015.63 1015.77 1015.87 1015.94 1015.99
1013.36 1013.33 1013.47 1013.71 1014.00 1014.26 1014.42 1014.41 1014.19 1013.74 1013.08 1012.23 1011.25 1010.22 1009.18 1008.22 1007.38 1006.71 1006.22 1005.92 1005.81 1005.86 1006.05 1006.36 1006.76 1007.23 1007.73 1008.28 1008.84 1009.41 1009.99 1010.58 1011.17 1011.75 1012.33 1012.88 1013.42 1013.91 1014.36 1014.75 1015.09 1015.37 1015.59 1015.75 1015.88 1015.96 1016.00 1016.02 1016.00
1013.53 1013.58 1013.76 1014.04 1014.37 1014.67 1014.89 1014.97 1014.88 1014.58 1014.09 1013.44 1012.66 1011.80 1010.92 1010.07 1009.30 1008.65 1008.13 1007.77 1007.57 1007.52 1007.60 1007.81 1008.12 1008.51 1008.96 1009.45 1009.98 1010.53 1011.09 1011.66 1012.21 1012.76 1013.29 1013.79 1014.25 1014.67 1015.04 1015.35 1015.61 1015.82 1015.97 1016.08 1016.15 1016.18 1016.18 1016.15 1016.07
1013.74 1013.80 1013.98 1014.24 1014.55 1014.84 1015.08 1015.23 1015.24 1015.09 1014.80 1014.37 1013.83 1013.21 1012.55 1011.89 1011.26 1010.69 1010.22 1009.85 1009.60 1009.48 1009.48 1009.60 1009.81 1010.12 1010.49 1010.92 1011.39 1011.89 1012.40 1012.91 1013.40 1013.88 1014.34 1014.75 1015.13 1015.45 1015.73 1015.95 1016.12 1016.24 1016.33 1016.38 1016.40 1016.39 1016.36 1016.28 1016.17
Thickness
5664 5667 5669 5664 5649 5640 5646 5658 5670 5679 5685 5694 5700 5703 5705 5709 5711 5715 5737 5748 5752 5754 5755 5754 5753 5752 5750 5749 5748 5748 5748 5748 5748 5747 5746 5745 5744 5743 5742 5741 5740 5739 5738 5737 5735 5733 5732 5730 5729
5655 5657 5654 5645 5633 5629 5640 5654 5663 5673 5682 5687 5694 5698 5701 5706 5717 5725 5733 5741 5746 5749 5749 5749 5748 5747 5746 5745 5744 5743 5743 5743 5743 5743 5742 5742 5741 5740 5739 5738 5737 5736 5735 5733 5732 5730 5728 5727 5726
5645 5645 5637 5629 5624 5629 5642 5653 5657 5666 5673 5679 5684 5691 5695 5701 5710 5718 5727 5735 5740 5742 5743 5744 5743 5742 5742 5741 5740 5739 5739 5738 5738 5738 5738 5738 5737 5736 5735 5734 5733 5732 5731 5730 5728 5726 5725 5724 5723
5633 5627 5621 5617 5622 5629 5639 5647 5651 5655 5663 5670 5674 5678 5688 5698 5703 5712 5721 5727 5731 5734 5736 5737 5737 5737 5737 5736 5736 5735 5735 5734 5734 5734 5734 5734 5733 5732 5731 5731 5729 5728 5727 5726 5724 5723 5721 5720 5719
5618 5611 5608 5606 5614 5623 5630 5636 5642 5646 5651 5658 5663 5667 5678 5690 5698 5706 5713 5719 5722 5725 5728 5731 5732 5732 5732 5732 5731 5731 5731 5730 5730 5730 5729 5729 5729 5728 5727 5726 5725 5724 5723 5722 5720 5719 5718 5717 5716
5599 5596 5593 5597 5607 5615 5622 5628 5632 5637 5641 5648 5653 5658 5670 5682 5689 5696 5704 5709 5713 5716 5720 5723 5725 5726 5726 5726 5727 5727 5726 5726 5726 5725 5725 5725 5725 5724 5723 5722 5721 5720 5719 5718 5717 5715 5714 5713 5713
5588 5584 5586 5591 5595 5603 5614 5620 5623 5627 5631 5638 5644 5649 5662 5672 5679 5686 5693 5699 5703 5707 5711 5714 5716 5718 5720 5721 5721 5722 5722 5721 5721 5721 5720 5720 5720 5719 5718 5717 5717 5716 5715 5714 5713 5711 5710 5710 5709
5581 5576 5578 5578 5585 5595 5604 5610 5615 5618 5623 5631 5637 5639 5648 5660 5669 5676 5682 5687 5692 5697 5701 5705 5708 5710 5712 5714 5715 5716 5717 5716 5716 5716 5715 5715 5714 5714 5713 5713 5712 5711 5710 5710 5709 5707 5706 5706 5705
5574 5563 5565 5570 5577 5588 5594 5598 5604 5610 5615 5621 5628 5634 5642 5651 5658 5663 5669 5674 5680 5686 5691 5695 5699 5702 5705 5707 5709 5710 5711 5711 5710 5710 5710 5709 5709 5708 5708 5707 5707 5706 5706 5705 5704 5703 5702 5701 5701
5559 5554 5563 5570 5574 5580 5584 5587 5592 5597 5602 5609 5616 5624 5632 5639 5644 5649 5654 5660 5667 5674 5681 5686 5690 5694 5697 5700 5702 5703 5704 5705 5704 5704 5703 5703 5703 5702 5702 5702 5702 5701 5700 5700 5699 5699 5698 5697 5696
5553 5551 5558 5563 5568 5571 5573 5577 5582 5586 5592 5599 5606 5613 5620 5627 5632 5638 5644 5650 5656 5664 5670 5676 5681 5685 5689 5692 5694 5696 5698 5698 5698 5698 5697 5697 5696 5696 5696 5696 5696 5695 5695 5694 5694 5693 5693 5692 5692
5543 5547 5551 5555 5559 5561 5563 5568 5572 5578 5588 5595 5600 5605 5610 5616 5622 5629 5635 5641 5647 5653 5660 5666 5672 5676 5680 5684 5687 5689 5691 5692 5692 5692 5692 5691 5691 5691 5691 5690 5690 5690 5690 5689 5689 5688 5688 5687 5687
5534 5538 5543 5546 5548 5551 5554 5558 5563 5574 5582 5586 5590 5596 5602 5608 5614 5621 5627 5633 5638 5643 5650 5656 5661 5667 5671 5675 5679 5682 5685 5686 5687 5686 5687 5686 5686 5685 5685 5685 5685 5685 5685 5684 5683 5682 5682 5681 5681
5527 5529 5533 5537 5540 5544 5548 5554 5555 5570 5574 5577 5582 5588 5594 5599 5606 5611 5617 5623 5628 5635 5641 5647 5652 5658 5662 5667 5671 5675 5677 5679 5680 5681 5681 5681 5681 5680 5679 5679 5679 5679 5679 5679 5678 5677 5677 5676 5675
5521 5521 5526 5532 5535 5539 5541 5547 5552 5563 5564 5569 5575 5581 5587 5593 5598 5603 5609 5615 5620 5626 5632 5637 5643 5648 5654 5659 5663 5666 5670 5672 5673 5674 5675 5675 5675 5675 5674 5674 5674 5673 5673 5673 5672 5671 5671 5670 5669
5512 5512 5515 5526 5530 5534 5533 5540 5552 5555 5556 5561 5567 5573 5579 5586 5591 5597 5602 5607 5612 5617 5623 5628 5634 5640 5645 5650 5655 5658 5662 5664 5666 5668 5669 5670 5670 5670 5669 5668 5668 5668 5667 5667 5666 5665 5664 5664 5663
5500 5499 5504 5514 5524 5527 5526 5531 5544 5547 5549 5554 5561 5565 5571 5578 5584 5589 5593 5598 5604 5609 5614 5619 5625 5630 5636 5642 5646 5650 5653 5657 5660 5661 5663 5664 5664 5664 5664 5663 5663 5662 5661 5661 5660 5659 5658 5657 5656
5494 5494 5500 5505 5516 5519 5518 5526 5537 5543 5544 5547 5553 5558 5564 5570 5576 5581 5584 5590 5595 5600 5605 5610 5617 5622 5628 5632 5636 5640 5645 5649 5652 5655 5657 5658 5658 5658 5658 5657 5657 5656 5655 5654 5654 5653 5652 5651 5650
5495 5495 5495 5503 5513 5513 5515 5522 5533 5538 5539 5543 5547 5552 5557 5564 5570 5573 5577 5581 5586 5591 5597 5603 5608 5614 5619 5623 5627 5631 5636 5641 5644 5647 5649 5651 5652 5652 5652 5651 5650 5650 5650 5650 5649 5647 5645 5643 5642
5493 5493 5497 5505 5512 5515 5514 5522 5530 5534 5536 5540 5544 5548 5552 5557 5562 5566 5570 5574 5579 5584 5590 5596 5601 5606 5611 5617 5622 5626 5630 5634 5637 5640 5641 5643 5646 5646 5646 5646 5645 5644 5644 5643 5643 5641 5639 5638 5637
5496 5495 5499 5502 5509 5513 5512 5521 5527 5532 5534 5538 5541 5544 5547 5551 5554 5559 5563 5567 5572 5578 5584 5590 5593 5597 5603 5608 5613 5617 5620 5624 5628 5630 5633 5636 5638 5640 5640 5640 5640 5638 5638 5638 5638 5637 5635 5633 5630
5499 5506 5505 5506 5504 5505 5508 5510 5521 5524 5530 5534 5536 5538 5542 5545 5549 5553 5557 5561 5565 5571 5576 5580 5585 5588 5593 5598 5604 5609 5611 5616 5621 5624 5626 5629 5631 5632 5633 5633 5634 5633 5633 5633 5633 5632 5630 5628 5625
5502 5509 5507 5507 5505 5504 5506 5507 5514 5521 5528 5531 5534 5535 5537 5540 5543 5546 5550 5555 5560 5565 5569 5572 5576 5580 5585 5590 5595 5599 5604 5608 5612 5614 5617 5620 5622 5625 5626 5627 5627 5628 5629 5628 5627 5626 5625 5623 5621
5508 5507 5507 5505 5505 5504 5506 5504 5508 5515 5522 5526 5529 5531 5533 5536 5538 5541 5544 5550 5555 5559 5563 5566 5570 5573 5578 5583 5586 5591 5596 5600 5602 5606 5609 5611 5614 5617 5619 5620 5621 5622 5622 5622 5621 5620 5618 5617 5616
5506 5501 5498 5498 5495 5502 5507 5504 5506 5515 5519 5522 5524 5528 5530 5533 5534 5536 5538 5543 5549 5553 5557 5561 5564 5567 5571 5574 5578 5583 5587 5592 5595 5598 5601 5604 5607 5609 5611 5612 5614 5615 5615 5615 5615 5613 5612 5611 5609
5506 5503 5498 5500 5500 5502 5506 5505 5509 5516 5519 5521 5523 5524 5526 5528 5529 5531 5533 5537 5543 5549 5553 5556 5559 5561 5564 5568 5572 5576 5581 5584 5587 5591 5593 5597 5600 5603 5604 5605 5606 5608 5608 5608 5608 5607 5607 5605 5603
5508 5505 5504 5498 5497 5499 5502 5506 5515 5519 5520 5521 5520 5521 5521 5522 5524 5526 5530 5534 5539 5544 5548 5551 5555 5557 5560 5562 5565 5569 5573 5576 5580 5584 5586 5589 5592 5596 5597 5597 5598 5599 5600 5601 5601 5600 5599 5598 5596
5511 5509 5503 5504 5504 5506 5509 5509 5511 5516 5517 5517 5517 5517 5517 5518 5520 5523 5526 5530 5534 5539 5543 5546 5550 5553 5555 5557 5561 5564 5567 5571 5573 5576 5579 5582 5585 5587 5588 5590 5591 5592 5593 5594 5594 5592 5591 5590 5589
5509 5509 5507 5503 5504 5506 5511 5513 5517 5515 5515 5514 5515 5514 5514 5515 5516 5518 5521 5525 5529 5533 5537 5540 5544 5547 5550 5552 5555 5558 5560 5563 5566 5569 5572 5575 5577 5578 5581 5583 5585 5585 5586 5586 5585 5584 5582 5581 5579
5515 5514 5511 5511 5506 5502 5505 5511 5519 5517 5515 5513 5512 5512 5512 5512 5513 5515 5518 5522 5525 5529 5532 5535 5538 5541 5544 5546 5549 5551 5553 5556 5559 5561 5564 5567 5569 5570 5573 5574 5575 5576 5576 5576 5576 5575 5573 5571 5570